Miscellaneous Local Product
Issued by NWS North Platte, NE

Home | Current Version | Previous Version | Text Only | Print | Product List | Glossary On
Versions: 1 2 3 4 5 6 7 8 9 10 11 12 13 14 15 16 17 18 19 20 21 22 23 24 25 26 27 28 29 30 31 32 33 34 35 36 37 38 39 40 41 42 43 44 45 46 47 48 49 50
548
AXUS43 KLBF 120710
MISLBF


WESTERN AND NORTH CENTRAL NEBRASKA HOURLY WEATHER ROUNDUP
NATIONAL WEATHER SERVICE NORTH PLATTE NE
100 AM CST FRI FEB 12 2016

NOTE: "FAIR" INDICATES FEW OR NO CLOUDS BELOW 12,000 FEET WITH NO
SIGNIFICANT WEATHER AND/OR OBSTRUCTIONS TO VISIBILITY.

NOTE: STATIONS NOT REPORTING VARIABLES SUCH AS SKY/WEATHER OR
PRESSURE ARE PROVIDED BY THE NEBRASKA DEPARTMENT OF
ROADS...RAWS...AND APRS NETWORKS...AND ARE NOT UNDER
NATIONAL WEATHER SERVICE QUALITY CONTROL.

...OBSERVATIONS IN AND NEAR THE EASTERN PANHANDLE OF NEBRASKA...

CITY           SKY/WX    TMP DP  RH WIND       PRES   REMARKS
PINE RIDGE     CLOUDY    34  29  82 N3        30.24S
CHADRON        CLOUDY    26  23  88 W3        30.26R
ALLIANCE       PTCLDY    30  27  88 W6        30.22R WCI  24
SIDNEY         CLEAR     31  26  82 NW12      30.23S WCI  22
CRESCENT LAKE    N/A     35  28  76 W6          N/A  WCI  30
BIG SPRINGS      N/A     30  27  88 W3          N/A
$$

...OBSERVATIONS IN NORTH CENTRAL NEBRASKA...

CITY           SKY/WX    TMP DP  RH WIND       PRES   REMARKS
VALENTINE      CLOUDY    30  27  88 NW5       30.23S WCI  25
THEDFORD       CLOUDY    33  31  92 NW8       30.23S WCI  27
AINSWORTH      CLOUDY    30  28  92 NW5       30.23S WCI  25
O`NEILL        CLOUDY    27  24  91 NW5       30.24R WCI  21
ORD            CLOUDY    29  25  85 NW13      30.23R WCI  19
BROKEN BOW     CLOUDY    32  29  88 N10       30.21F WCI  24
VALENTINE NWR    N/A     29  28  95 N7          N/A  WCI  22
BUTTE            N/A     21  20  96 W3          N/A
HALSEY           N/A     31  29  91 NW5G13      N/A  WCI  26
CHAMBERS         N/A     27  25  90 CALM        N/A
EWING            N/A     25  23  93 NW3         N/A
$$

...OBSERVATIONS IN SOUTHWEST NEBRASKA AND FAR NORTHEAST COLORADO...

CITY           SKY/WX    TMP DP  RH WIND       PRES   REMARKS
HOLYOKE        FAIR      37  32  81 NW5       30.24R WCI  34
IMPERIAL       CLOUDY    32  27  81 N8        30.23S WCI  25
OGALLALA       CLOUDY    32  27  81 CALM      30.23S
NORTH PLATTE   CLOUDY    32  27  81 W7        30.22S WCI  26
MCCOOK         CLOUDY    33  28  81 SW9       30.23R WCI  25
LEXINGTON      CLEAR     32  27  83 N6        30.23R WCI  26
PAXTON           N/A     32  28  84 CALM        N/A
STAPLETON        N/A     31  29  91 CALM        N/A
GOTHENBURG       N/A     36  30  78 NW5         N/A  WCI  32
CALLAWAY         N/A     31  29  91 N12         N/A  WCI  22
$$

...OBSERVATIONS IN CENTRAL LINCOLN COUNTY AREA...

CITY           SKY/WX    TMP DP  RH WIND       PRES   REMARKS
N.P. AIRPORT   CLOUDY    32  27  81 W7        30.22S WCI  26
N.P. DOWNTOWN    N/A     34  31  88 CALM        N/A
N.P. SOUTHEAST   N/A     35  32  89 CALM        N/A
N.P. HILLCREST   N/A     33  30  90 NW3         N/A
$$

...SOME OBSERVATIONS FROM AROUND THE REGION...

CITY           SKY/WX    TMP DP  RH WIND       PRES   REMARKS
DENVER         PTCLDY    35  25  66 SE14      30.26S WCI  26
LARAMIE        CLOUDY    36  23  59 NW7       30.29R WCI  30
CHEYENNE       CLOUDY    34  24  67 CALM      30.27R
SCOTTSBLUFF    CLOUDY    31  26  82 N6        30.24S WCI  25
RAPID CITY     CLOUDY    31  27  85 NE7       30.24S WCI  24
BISMARCK       CLOUDY    20  14  77 NW6       30.33R WCI  12
PIERRE         CLOUDY    25  22  88 N15       30.28R WCI  13
WINNER         CLOUDY    27  23  85 W7        30.26R WCI  19
SIOUX FALLS    CLOUDY    15  11  83 W6        30.24S WCI   6
OMAHA          CLOUDY    24  20  84 N8        30.24S WCI  15
GRAND ISLAND   MOCLDY    30  25  81 N15       30.24R WCI  19
KANSAS CITY    CLOUDY    30  22  72 NE6       30.18S WCI  24
WICHITA        PTCLDY    31  24  75 SW3       30.18S
OKLAHOMA CITY  PTCLDY    40  32  73 CALM      30.17S
LIBERAL        CLOUDY    39  23  52 CALM      30.22R
HAYS           CLEAR     30  21  69 NE8       30.20R WCI  23
GOODLAND       CLOUDY    32  26  78 NW12      30.24S WCI  23
$$




USA.gov is the U.S. government's official web portal to all federal, state and local government web resources and services.